Hourly Weather Roundup
Issued by NWS Central Illinois

Home | Current Version | Previous Version | Text Only | Print | Product List | Glossary On
Versions: 1 2 3 4 5 6 7 8 9 10 11 12 13 14 15 16 17 18 19 20 21 22 23 24 25 26 27 28 29 30 31 32 33 34 35 36 37 38 39 40 41 42 43 44 45 46 47 48 49 50
000
NZUS43 KILX 281710
HWRILX

AREA WEATHER ROUNDUP
NATIONAL WEATHER SERVICE, LINCOLN IL
1100 AM CST SAT FEB 28 2015


CITY           SKY/WX    TMP DP  RH WIND       PRES   REMARKS
BLOOMINGTON    SUNNY     20  10  65 SE10      30.64F WCI   9
CHAMPAIGN      MOSUNNY   18   8  65 SE13      30.65F WCI   5
DECATUR        SUNNY     18   8  65 E9        30.65F WCI   7
FLORA          CLOUDY    24  11  55 SE8       30.66F WCI  16
GALESBURG      SUNNY     17   4  59 SE8       30.63F WCI   6
JACKSONVILLE   SUNNY     20   9  64 E10       30.62F WCI   8
LACON          SUNNY     16   1  53 SE8       30.66F WCI   5
LAWRENCEVILLE  CLOUDY    24  10  55 E10       30.67F WCI  14
LITCHFIELD     MOSUNNY   22   6  49 SE10      30.61F WCI  11
$$


CITY           SKY/WX    TMP DP  RH WIND       PRES   REMARKS
LINCOLN        SUNNY     23  10  58 SE8       30.68S WCI  14
MACOMB         SUNNY     16   6  67 SE8       30.65F WCI   5
MATTOON        CLOUDY    22   6  50 SE12      30.64F WCI  10
MT CARMEL AP   CLOUDY    28  10  47 E8        30.67S WCI  20
OLNEY-NOBLE AP CLOUDY    27   9  46 E9        30.66F WCI  17
PARIS          MOSUNNY   22   8  54 SE7       30.68F WCI  13
PEORIA         SUNNY     20   4  50 SE8       30.65F WCI  10
PONTIAC        PTSUNNY   13   5  70 E12       30.69F WCI   0
RANTOUL        MOSUNNY   22   9  57 SE9       30.66F WCI  12
ROBINSON       SUNNY     26   9  49 E9        30.69S WCI  17
SPRINGFIELD    SUNNY     21   8  57 E7        30.63F WCI  12
TAYLORVILLE    MOSUNNY   21   7  53 SE8       30.63F WCI  12
$$

...REGIONAL REPORTS...


CITY           SKY/WX    TMP DP  RH WIND       PRES   REMARKS
CHICAGO O`HARE SUNNY     14   0  53 SE5       30.69F WCI   6
KANKAKEE       CLOUDY    16   4  57 SE9       30.71F WCI   5
MOLINE         SUNNY     12   1  61 SE12      30.65F WCI  -2
MOUNT VERNON   CLOUDY    27  10  50 E6        30.65F WCI  20
PITTSFIELD     SUNNY     21   6  51 E12       30.61F WCI   9
QUINCY         MOSUNNY   18   4  54 SE8       30.59F WCI   8
ROCKFORD       SUNNY     10  -2  58 S7        30.70S WCI  -1
$$


CITY           SKY/WX    TMP DP  RH WIND       PRES   REMARKS
BURLINGTON     SUNNY     15   3  59 SE7       30.61F WCI   5
CEDAR RAPIDS   SUNNY      9   1  70 SE7       30.59F WCI  -2
DES MOINES     MOSUNNY   17   4  56 S8        30.54F WCI   7
KIRKSVILLE     CLOUDY    23  10  57 SE15      30.56R WCI  10
OTTUMWA        SUNNY     17   4  56 SE9       30.57F WCI   6
ST LOUIS       PTSUNNY   25   9  50 E12       30.60F WCI  14
$$


CITY           SKY/WX    TMP DP  RH WIND       PRES   REMARKS
TERRE HAUTE    CLOUDY    22   6  50 SE8       30.67F WCI  12
EVANSVILLE     CLOUDY    28  11  48 E5        30.65F WCI  23
INDIANAPOLIS   CLOUDY    20   5  52 E9        30.67F WCI   9
LAFAYETTE      CLOUDY    20   7  57 VRB6      30.70F WCI  12
MADISON        MOSUNNY   10  -3  55 S12       30.65S WCI  -5
MILWAUKEE      MOSUNNY   11  -4  51 SW10      30.69F WCI  -3
$$





USA.gov is the U.S. government's official web portal to all federal, state and local government web resources and services.